Dickinson, ND

12:07 AM MST on January 17, 2018 (GMT -0700)
Dickinson Municipal

Weather History for KDIK - February, 2014

Change the Weather History Date:

Saturday, February 1, 2014

  Actual Average Record
Temperature  
Mean Temperature 6 °F 18 °F  
Max Temperature 11 °F 28 °F 68 °F (1992)
Min Temperature 0 °F 8 °F -43 °F (1893)
Degree Days  
Heating Degree Days 59 47  
Month to date heating degree days 59 47  
Since 1 July heating degree days 5192 5094  
Cooling Degree Days 0 0  
Month to date cooling degree days 0 0  
Year to date cooling degree days 0 0  
Moisture  
Dew Point -1 °F    
Average Humidity 75    
Maximum Humidity 80    
Minimum Humidity 69    
Precipitation  
Precipitation T in 0.01 in 0.60 in (1972)
Month to date precipitation T 0.01  
Year to date precipitation 0.04 0.31  
Sea Level Pressure  
Sea Level Pressure 30.11 in    
Wind  
Wind Speed 15 mph (WNW)    
Max Wind Speed 25 mph    
Max Gust Speed 30 mph    
Visibility 7 miles    
Events Snow    
T = Trace of Precipitation, MM = Missing Value Source: NWS Daily Summary

Daily Weather History Graph

Daily Weather History Graph

Search for Another Location

Airport or City:

Trip Planner

Search our weather history database for the weather conditions in past years. The results will help you decide how hot, cold, wet, or windy it might be!

Date:

Astronomy

Feb. 01, 2014 Rise Set
Actual Time 7:15 AM MST 4:54 PM MST
Civil Twilight 6:43 AM MST 5:27 PM MST
Nautical Twilight 6:06 AM MST 6:03 PM MST
Astronomical Twilight 5:31 AM MST 6:39 PM MST
Moon 7:55 AM MST (2/1) 7:45 PM MST (2/1)
Length of Visible Light 10h 44m
Length of Day
9h 39m
Waxing Crescent, 5% of the Moon is Illuminated
Feb 1
Waxing Crescent
Feb 6
First Quarter
Feb 14
Full
Feb 22
Last Quarter
Mar 1
New

Hourly Weather History & Observations

Time (MST) Temp. Windchill Dew Point Humidity Pressure Visibility Wind Dir Wind Speed Gust Speed Precip Events Conditions
12:56 AM 3.9 °F -18.5 °F -2.9 °F 73% 30.03 in 9.0 mi WNW 24.2 mph 28.8 mph N/A   Overcast
1:56 AM 3.0 °F -16.1 °F -4.0 °F 73% 30.05 in 10.0 mi NW 16.1 mph - 0.00 in   Overcast
2:42 AM 1.9 °F -19.8 °F -5.1 °F 72% 29.92 in 10.0 mi NW 20.7 mph - N/A   Scattered Clouds
2:56 AM 1.9 °F -18.1 °F -5.1 °F 72% 30.08 in 10.0 mi NW 17.3 mph - N/A   Mostly Cloudy
3:56 AM -0.0 °F -15.3 °F -5.1 °F 79% 30.10 in 5.0 mi NW 9.2 mph - N/A   Haze
4:56 AM 1.9 °F -17.5 °F -4.0 °F 76% 30.12 in 9.0 mi NW 16.1 mph - N/A   Overcast
5:24 AM 1.0 °F -16.6 °F -5.1 °F 75% 29.96 in 10.0 mi WNW 12.7 mph - N/A   Partly Cloudy
5:56 AM 1.0 °F -15.8 °F -5.1 °F 75% 30.14 in 10.0 mi WNW 11.5 mph - N/A   Overcast
6:11 AM 1.9 °F -15.5 °F -4.0 °F 76% 29.97 in 10.0 mi WNW 12.7 mph - N/A   Overcast
6:56 AM 3.9 °F -16.6 °F -2.9 °F 73% 30.16 in 10.0 mi WNW 19.6 mph - N/A   Overcast
7:56 AM 3.0 °F -17.3 °F -2.9 °F 76% 30.18 in 4.0 mi NW 18.4 mph - 0.00 in Snow Light Snow
8:56 AM 5.0 °F -16.7 °F -2.0 °F 73% 30.20 in 6.0 mi WNW 23.0 mph - 0.00 in Snow Light Snow
9:30 AM 3.9 °F -16.1 °F -2.9 °F 73% 30.04 in 2.5 mi WNW 18.4 mph - 0.00 in Snow Light Snow
9:37 AM 3.9 °F -16.1 °F -2.9 °F 73% 30.04 in 6.0 mi WNW 18.4 mph - 0.00 in   Haze
9:56 AM 5.0 °F -15.2 °F -2.9 °F 70% 30.22 in 8.0 mi WNW 19.6 mph - 0.00 in   Overcast
10:56 AM 8.1 °F -10.2 °F -0.9 °F 67% 30.22 in 10.0 mi WNW 17.3 mph - 0.00 in   Overcast
11:32 AM 8.1 °F -11.2 °F -2.0 °F 64% 30.04 in 10.0 mi WNW 19.6 mph - N/A   Overcast
11:56 AM 9.0 °F -10.0 °F -0.9 °F 64% 30.22 in 10.0 mi WNW 19.6 mph - N/A   Overcast
12:09 PM 9.0 °F -9.0 °F -0.9 °F 64% 30.04 in 8.0 mi NW 17.3 mph - 0.00 in Snow Light Snow
12:33 PM 10.0 °F -8.1 °F -0.0 °F 64% 30.03 in 5.0 mi WNW 18.4 mph - 0.00 in Snow Light Snow
12:56 PM 10.9 °F -7.0 °F 1.0 °F 64% 30.19 in 6.0 mi WNW 18.4 mph - 0.00 in Snow Light Snow
1:20 PM 10.9 °F -7.9 °F 1.9 °F 67% 30.02 in 3.0 mi WNW 20.7 mph - 0.00 in Snow Light Snow
1:24 PM 10.0 °F -7.6 °F 1.0 °F 67% 30.02 in 1.8 mi WNW 17.3 mph - 0.00 in Snow Light Snow
1:36 PM 10.0 °F -9.1 °F 1.0 °F 67% 30.02 in 3.0 mi WNW 20.7 mph 26.5 mph 0.00 in Snow Light Snow
1:44 PM 10.0 °F -8.6 °F 1.0 °F 67% 30.02 in 1.8 mi WNW 19.6 mph - 0.00 in Snow Light Snow
1:52 PM 10.4 °F -8.2 °F 1.4 °F 67% 30.02 in 2.0 mi WNW 19.6 mph - 0.00 in Snow Light Snow
1:56 PM 10.0 °F -9.5 °F -0.0 °F 64% 30.19 in 9.0 mi WNW 21.9 mph - 0.00 in   Overcast
2:56 PM 9.0 °F -9.0 °F -2.0 °F 61% 30.21 in 7.0 mi West 17.3 mph - 0.00 in Snow Light Snow
3:56 PM 8.1 °F -9.0 °F -0.9 °F 67% 30.23 in 6.0 mi WNW 15.0 mph - 0.00 in Snow Light Snow
4:56 PM 8.1 °F -5.3 °F -0.9 °F 67% 30.23 in 10.0 mi WNW 9.2 mph - 0.00 in   Overcast
5:35 PM 8.1 °F -7.7 °F 1.0 °F 73% 30.05 in 1.8 mi West 12.7 mph - 0.00 in Snow Light Snow
5:47 PM 8.1 °F -7.7 °F 1.9 °F 76% 30.05 in 4.0 mi WNW 12.7 mph - 0.00 in Snow Light Snow
5:56 PM 8.1 °F -7.0 °F 1.0 °F 73% 30.23 in 10.0 mi WNW 11.5 mph - 0.00 in   Overcast
6:56 PM 7.0 °F -7.5 °F -0.9 °F 70% 30.22 in 10.0 mi West 10.4 mph - N/A   Overcast
7:56 PM 7.0 °F -5.7 °F 1.0 °F 77% 30.22 in 10.0 mi WSW 8.1 mph - N/A   Overcast
8:56 PM 8.1 °F -3.2 °F 1.9 °F 76% 30.21 in 7.0 mi West 6.9 mph - 0.00 in Snow Light Snow
9:56 PM 9.0 °F -4.2 °F 1.9 °F 73% 30.20 in 10.0 mi WSW 9.2 mph - 0.00 in   Overcast
10:04 PM 9.0 °F -5.1 °F 1.9 °F 73% 30.03 in 10.0 mi WSW 10.4 mph - N/A   Overcast
10:56 PM 9.0 °F -5.9 °F 1.9 °F 73% 30.19 in 10.0 mi WSW 11.5 mph - N/A   Overcast
11:48 PM 3.0 °F -12.5 °F -2.9 °F 76% 30.02 in 10.0 mi SW 10.4 mph - N/A   Scattered Clouds
11:56 PM 1.9 °F -12.9 °F -4.0 °F 76% 30.19 in 10.0 mi SW 9.2 mph - N/A   Partly Cloudy